Weather History for New Bedford, MA

Change the Weather History Date:

Sunday, July 14, 2013

  Actual Average Record
Temperature  
Mean Temperature 80 °F -  
Max Temperature 90 °F 81 °F 91 °F (1997)
Min Temperature 71 °F 66 °F 46 °F (1999)
Cooling Degree Days 16    
Growing Degree Days 30 (Base 50)    
Moisture  
Dew Point 72 °F    
Average Humidity 88    
Maximum Humidity 100    
Minimum Humidity 54    
Precipitation  
Precipitation 0.02 in - - ()
Sea Level Pressure  
Sea Level Pressure 30.26 in    
Wind  
Wind Speed 3 mph (WSW)    
Max Wind Speed 12 mph    
Max Gust Speed -    
Visibility 6 miles    
Events Fog , Rain    
Averages and records for this station are not official NWS values.
T = Trace of Precipitation, MM = Missing Value Source: NWS Daily Summary

Daily Weather History Graph

Daily Weather History Graph

Search for Another Location

Airport:

Trip Planner

Search our weather history database for the weather conditions in past years. The results will help you decide how hot, cold, wet, or windy it might be!

Date:

Astronomy

Jul. 14, 2013 Rise Set
Actual Time 5:21 AM EDT 8:17 PM EDT
Civil Twilight 4:48 AM EDT 8:50 PM EDT
Nautical Twilight 4:06 AM EDT 9:32 PM EDT
Astronomical Twilight 3:17 AM EDT 10:20 PM EDT
Moon 11:41 AM EDT (7/14) 11:21 PM EDT (7/14)
Length of Visible Light 16h 01m
Length of Day
14h 55m
Waxing Crescent, 35% of the Moon is Illuminated
Jul 14
Waxing Crescent
Jul 15
First Quarter
Jul 22
Full
Jul 29
Last Quarter
Aug 6
New

Hourly Weather History & Observations

Time (EDT) Temp. Heat Index Dew Point Humidity Pressure Visibility Wind Dir Wind Speed Gust Speed Precip Events Conditions
12:17 AM 71.6 °F - 71.6 °F 100% 30.29 in 0.8 mi South 4.6 mph - N/A   Mist
12:53 AM 72.0 °F - 71.1 °F 97% 30.30 in 0.5 mi SW 5.8 mph - N/A Fog Fog
1:04 AM 71.6 °F - 71.6 °F 100% 30.29 in 1.0 mi SW 5.8 mph - N/A   Mist
1:13 AM 71.6 °F - 71.6 °F 100% 30.29 in 0.5 mi WSW 5.8 mph - N/A Fog Fog
1:25 AM 71.6 °F - 71.6 °F 100% 30.29 in 1.0 mi SSW 4.6 mph - N/A   Mist
1:53 AM 72.0 °F - 71.1 °F 97% 30.29 in 1.2 mi Calm Calm - N/A   Overcast
2:25 AM 71.6 °F - 71.6 °F 100% 30.29 in 0.8 mi Calm Calm - N/A   Mist
2:34 AM 71.6 °F - 71.6 °F 100% 30.29 in 1.0 mi Calm Calm - N/A   Mist
2:53 AM 72.0 °F - 71.1 °F 97% 30.28 in 2.0 mi Calm Calm - N/A   Overcast
3:03 AM 71.6 °F - 71.6 °F 100% 30.28 in 4.0 mi Calm Calm - N/A   Overcast
3:11 AM 71.6 °F - 71.6 °F 100% 30.28 in 1.8 mi Calm Calm - N/A   Overcast
3:53 AM 72.0 °F - 71.1 °F 97% 30.29 in 0.8 mi Calm Calm - N/A   Mist
4:53 AM 72.0 °F - 72.0 °F 100% 30.28 in 1.0 mi Calm Calm - N/A   Mist
5:25 AM 71.6 °F - 71.6 °F 100% 30.29 in 0.8 mi Calm Calm - N/A   Mist
5:37 AM 71.6 °F - 71.6 °F 100% 30.29 in 1.0 mi Calm Calm - N/A   Mist
5:53 AM 72.0 °F - 72.0 °F 100% 30.29 in 1.2 mi Calm Calm - N/A   Overcast
6:03 AM 71.6 °F - 71.6 °F 100% 30.28 in 3.0 mi Calm Calm - N/A   Overcast
6:10 AM 73.4 °F - 71.6 °F 94% 30.28 in 3.0 mi Calm Calm - N/A   Overcast
6:18 AM 73.4 °F - 71.6 °F 94% 30.29 in 2.5 mi Calm Calm - N/A   Overcast
6:23 AM 71.6 °F - 71.6 °F 100% 30.29 in 3.0 mi Calm Calm - N/A   Overcast
6:29 AM 71.6 °F - 71.6 °F 100% 30.29 in 2.5 mi Calm Calm - N/A   Overcast
6:39 AM 73.4 °F - 71.6 °F 94% 30.29 in 3.0 mi Calm Calm - N/A   Overcast
6:53 AM 73.0 °F - 72.0 °F 96% 30.29 in 9.0 mi Calm Calm - N/A   Overcast
7:53 AM 75.0 °F - 73.0 °F 94% 30.30 in 10.0 mi Calm Calm - N/A   Overcast
8:10 AM 75.2 °F - 73.4 °F 94% 30.30 in 10.0 mi Calm Calm - N/A   Overcast
8:53 AM 77.0 °F - 73.0 °F 88% 30.30 in 10.0 mi WNW 3.5 mph - N/A   Overcast
9:53 AM 80.1 °F 84.2 °F 73.0 °F 79% 30.29 in 10.0 mi North - - N/A   Overcast
10:32 AM 80.6 °F 85.4 °F 73.4 °F 79% 30.28 in 10.0 mi West 3.5 mph - N/A   Mostly Cloudy
10:44 AM 82.4 °F 88.2 °F 73.4 °F 74% 30.28 in 10.0 mi West 6.9 mph - N/A   Partly Cloudy
10:53 AM 82.9 °F 89.4 °F 73.9 °F 74% 30.27 in 10.0 mi West 3.5 mph - N/A   Scattered Clouds
11:53 AM 86.0 °F 93.8 °F 73.9 °F 67% 30.26 in 10.0 mi WNW 5.8 mph - N/A   Mostly Cloudy
12:53 PM 88.0 °F 94.7 °F 72.0 °F 59% 30.25 in 10.0 mi West 10.4 mph - N/A   Scattered Clouds
1:53 PM 89.1 °F 96.0 °F 72.0 °F 57% 30.23 in 10.0 mi West 6.9 mph - N/A   Partly Cloudy
2:53 PM 90.0 °F 96.4 °F 71.1 °F 54% 30.22 in 10.0 mi Variable 3.5 mph - N/A   Scattered Clouds
3:53 PM 87.1 °F 92.8 °F 71.1 °F 59% 30.20 in 10.0 mi Calm Calm - N/A   Mostly Cloudy
4:53 PM 88.0 °F 97.5 °F 75.0 °F 65% 30.19 in 10.0 mi SW 11.5 mph - N/A   Mostly Cloudy
5:53 PM 84.9 °F 93.3 °F 75.0 °F 72% 30.19 in 10.0 mi SW 8.1 mph - N/A   Mostly Cloudy
6:53 PM 82.9 °F 90.2 °F 75.0 °F 77% 30.19 in 10.0 mi SW 6.9 mph - N/A   Clear
7:53 PM 82.0 °F 87.9 °F 73.9 °F 76% 30.19 in 10.0 mi WSW 5.8 mph - N/A   Mostly Cloudy
8:39 PM 75.2 °F - 71.6 °F 89% 30.21 in 9.0 mi NNE 8.1 mph - 0.01 in Rain Light Rain
8:51 PM 75.2 °F - 71.6 °F 89% 30.21 in 10.0 mi Calm Calm - 0.02 in   Overcast
8:53 PM 75.9 °F - 72.0 °F 87% 30.21 in 10.0 mi SSE 3.5 mph - 0.02 in   Overcast
9:53 PM 75.9 °F - 73.0 °F 91% 30.21 in 10.0 mi Calm Calm - 0.00 in   Scattered Clouds
10:53 PM 75.0 °F - 73.0 °F 94% 30.20 in 10.0 mi Calm Calm - N/A   Mostly Cloudy
11:53 PM 73.9 °F - 73.0 °F 97% 30.20 in 10.0 mi Calm Calm - N/A   Partly Cloudy